Date,TemperatureHighF,TemperatureAvgF,TemperatureLowF,DewpointHighF,DewpointAvgF,DewpointLowF,HumidityHigh,HumidityAvg,HumidityLow,PressureMaxIn,PressureMinIn,WindSpeedMaxMPH,WindSpeedAvgMPH,GustSpeedMaxMPH,PrecipitationSumIn
2013-1-1,47,34,26,33,25,20,99,74,45,30.07,29.96,15,6,20,0.01
2013-1-2,44,36,33,23,22,20,61,56,43,29.96,29.82,21,14,30,0.00
2013-1-3,42,36,32,28,22,18,67,56,40,29.86,29.75,15,7,23,0.00
2013-1-4,46,38,34,43,36,27,99,92,68,29.96,29.80,9,2,12,0.05
2013-1-5,41,37,35,35,30,26,99,76,68,29.84,29.77,14,4,19,0.02
2013-1-6,45,39,34,44,38,34,99,98,93,29.86,29.67,6,2,11,0.13
2013-1-7,54,48,44,50,46,43,99,94,82,29.83,29.59,13,6,22,0.11
2013-1-8,54,50,45,51,48,44,99,91,75,29.82,29.50,12,6,23,0.08
2013-1-9,52,43,34,47,40,33,99,89,76,29.60,29.30,13,5,21,0.19
2013-1-10,43,36,32,38,35,32,99,97,78,29.72,29.59,7,2,11,0.08
2013-1-11,45,33,27,38,29,25,99,85,52,29.92,29.71,9,2,11,0.01
2013-1-12,32,28,25,31,28,25,99,99,94,30.02,29.91,0,0,0,0.00
2013-1-13,34,27,25,29,26,25,99,97,89,30.11,29.62,0,0,2,0.00
2013-1-14,32,30,27,32,29,26,99,96,89,30.17,30.10,3,1,4,0.01
2013-1-15,39,34,32,37,33,28,99,95,82,30.27,30.17,8,3,11,0.00
2013-1-16,35,34,32,34,33,31,99,98,96,30.27,30.10,5,3,8,0.00
2013-1-17,48,35,30,36,31,25,99,87,58,30.11,29.93,5,2,7,0.00
2013-1-18,49,32,24,36,29,23,99,90,60,29.94,29.88,5,1,5,0.00
2013-1-19,35,31,23,35,30,23,99,99,95,29.96,29.90,3,2,4,0.01
2013-1-20,35,35,35,35,35,35,99,99,99,29.90,29.90,2,2,4,0.01
2013-1-21,41,33,25,35,32,24,99,96,68,29.90,29.77,4,2,8,0.01
2013-1-22,48,32,23,32,25,21,99,78,37,29.78,29.56,8,2,11,0.01
2013-1-23,36,34,32,34,28,22,99,82,60,29.83,29.51,11,2,17,0.33
2013-1-24,41,36,32,40,36,32,99,99,99,29.85,29.71,6,1,8,0.17
2013-1-25,52,43,39,50,43,38,99,98,91,29.74,29.57,6,2,11,0.14
2013-1-26,47,41,37,42,40,36,99,94,77,29.71,29.54,9,4,14,0.09
2013-1-27,42,39,35,42,38,35,99,97,92,29.77,29.65,8,3,12,0.07
2013-1-28,45,41,37,43,40,37,99,97,89,29.82,29.69,8,4,14,0.34
2013-1-29,49,45,42,46,44,42,99,96,90,30.07,29.81,8,5,13,0.05
2013-1-30,51,47,43,48,45,42,98,92,85,30.07,30.01,11,6,18,0.01
2013-1-31,57,48,42,48,45,42,99,89,69,30.06,29.93,6,2,8,0.00